Weather in Serafimovich

Russia / Volgograd Oblast     49°35′02″N   42°44′02″E
temp.,
°C
wind,
m/s
gust,
m/s
humid.,
%
clouds,
%
prec.,
mm/h
press.,
hPa
HPBL,
m
25 july, sun
sun2500:00+21nne12598 0.0 101564
03:00+19n226934 0.0 101617
06:00+19nne22670 0.0 1017119
09:00+24ne32480 0.0 1018784
12:00+28n333297 0.0 10182894
15:00+29e332884 0.0 10182503
18:00+26ne563986 0.0 1019775
21:00+21ne49480 0.0 1020160
26 july, mon
mon2600:00+20ene374941 0.0 1021136
03:00+17e225471 0.0 102221
06:00+20ene26445 0.0 1022193
09:00+27ene55305 0.0 10221176
12:00+30ene53245 0.0 10222667
15:00+31ne432350 0.0 10203089
18:00+29nne552796 0.0 10201229
21:00+22ene411401 0.0 1021208
27 july, tue
tue2700:00+19e36450 0.0 102293
03:00+17ese22490 0.0 102214
06:00+19e12450 0.0 102392
09:00+26ene33290 0.0 10221045
12:00+29ne43240 0.0 10212683
15:00+30ne442217 0.0 10193062
18:00+29ne442432 0.0 10192873
21:00+25e3433100 0.0 101980
28 july, wed
wed2800:00+20e22455 0.0 101911
03:00+18w00495 0.0 101911
06:00+21ne11437 0.0 101946
09:00+28e21290 0.0 10181107
12:00+31n332455 0.0 10173124
15:00+31nnw122290 0.0 10163217
18:00+31wsw222397 0.0 10153034
21:00+24wsw22375 0.0 101512
29 july, thu
thu2900:00+22ssw45397 0.0 101567
03:00+20ssw48455 0.0 1014106
06:00+23sw5104288 0.0 1013244
09:00+30wsw68328 0.0 10131055
12:00+33w9102897 0.0 10122750
15:00+31sw7936100 0.2 10112094
18:00+27wsw59528 1.0 1011302
21:00+26wsw475295 1.1 1011139